sat.trackr.live / text

‹ back to catalog

STARLINK-34215

NORAD 64252 · 2025-119V

PAYLOAD ACTIVE UNKNOWN

§ Identity

Operator
Country
US
Launch date
2025-06-03
Launch site
AFETR
Launch vehicle
Mass (kg)
RCS (m²)

Purposes: comms

External: N2YO · Heavens-Above · Gunter

§ Orbital elements

Epoch: 2026-05-24T22:59:36.678624Z

Period
94.26 min
Inclination
42.9975°
Eccentricity
0.0000348
Mean motion
15.27615730 rev/d
Perigee alt
482.7 km
Apogee alt
483.2 km
Semi-major
6,861.1 km
B*
1.0314e-3
RAAN
236.3190°
Arg perigee
330.6919°
Mean anomaly
29.3913°
Rev number
5,583

§ Raw data

STARLINK-342151 64252U 25119V   26144.95806341  .00028261  00000+0  10314-2 0  99992 64252  42.9975 236.3190 0000348 330.6919  29.3913 15.27615730 55832

JSON: /api/v1/satellites/64252 · /tle

For live sub-satellite position, see the globe view (requires WebGL).

§ Visibility from observer

Set your observer location to see the next 7 days of passes ≥ 10°. The values pass through the URL so the page stays shareable.

No JS? Fill the form by hand. The geolocation button needs JavaScript.